Upstream stations:
Downstream station:
SHEF ID: CASK1 NF NINNESCAH R AB CHENEY RE, KS
STATION TYPE:
PRECIP STAGE RIV-FLOW BAT-LOAD
in ft cfs volt
Ccp-Rev Ccp-Rev Ccp-Rev Ccp-Rev
(US/Central)
09/11 00:00 0.00 5.70 14 12.41
09/11 01:00 0.00 5.71 15 12.33
09/11 02:00 0.00 5.71 15 12.33
09/11 03:00 0.00 5.71 15 12.33
09/11 04:00 0.00 5.72 16 12.25
09/11 05:00 0.01 5.72 16 12.25
09/11 06:00 0.00 5.72 16 12.33
09/11 07:00 0.00 5.72 16 12.33
09/11 08:00 0.00 5.73 16 12.33
09/11 09:00 0.00 5.73 16 12.97
09/11 10:00 0.00 5.73 16 13.76
09/11 11:00 0.00 5.73 16 13.84
09/11 12:00 0.00 5.72 16 13.84
09/11 13:00 0.00 5.71 15 13.76
09/11 14:00 0.00 5.71 15 13.68
09/11 15:00 0.00 5.70 14 13.68
09/11 16:00 0.00 5.70 14 13.60
09/11 17:00 0.00 5.70 14 13.53
09/11 18:00 0.00 5.70 14 13.44
09/11 19:00 0.00 5.71 15 13.29
09/11 20:00 0.00 5.71 15 12.81
09/11 21:00 0.00 5.69 14 12.65
09/11 22:00 0.00 5.69 14 12.57
09/11 23:00 0.00 5.69 14 12.57